FW8380 Weather Reports


time (UTC)temp
C
wind
direction
speed
KPH
gust
KPH
rain 1hr
cm
rain 24hr
cm
rain mn
cm
humidity
%
barometer
mb
20260509035039 22 0 0.0 1.6 0.00 0.00 0.00 66 1011.7
20260509034549 22 0 0.0 1.6 0.00 0.00 0.00 66 1011.6
20260509034039 22 0 0.0 1.6 0.00 0.00 0.00 65 1011.6
20260509033542 22 0 0.0 4.8 0.00 0.00 0.00 64 1011.6
20260509033050 22 0 0.0 4.8 0.00 0.00 0.00 63 1011.6
20260509032539 23 338 0.0 1.6 0.00 0.00 0.00 63 1011.5
20260509032040 23 352 0.0 1.6 0.00 0.00 0.00 62 1011.5
20260509031557 23 0 0.0 0.0 0.00 0.00 0.00 61 1011.4
20260509031042 23 0 0.0 0.0 0.00 0.00 0.00 60 1011.4
20260509030539 23 0 0.0 1.6 0.00 0.00 0.00 59 1011.3
20260509030110 24 0 0.0 1.6 0.00 0.00 0.00 58 1011.3
20260509025539 24 0 0.0 1.6 0.00 0.00 0.00 57 1011.3
20260509025042 25 0 0.0 6.4 0.00 0.00 0.00 56 1011.3
20260509024546 25 0 0.0 6.4 0.00 0.00 0.00 55 1011.3
20260509024040 25 0 0.0 4.8 0.00 0.00 0.00 55 1011.2
20260509023540 25 0 1.6 4.8 0.00 0.00 0.00 54 1011.2
20260509023045 25 352 0.0 4.8 0.00 0.00 0.00 53 1011.2
20260509022539 25 0 1.6 8.0 0.00 0.00 0.00 52 1011.1
20260509022039 25 0 0.0 8.0 0.00 0.00 0.00 51 1011.1
20260509021546 26 0 1.6 8.0 0.00 0.00 0.00 50 1011.1
20260509021042 26 0 0.0 11.3 0.00 0.00 0.00 49 1011.1
20260509020538 26 0 0.0 11.3 0.00 0.00 0.00 49 1011.1
20260509020055 26 349 0.0 12.9 0.00 0.00 0.00 48 1011.2
20260509015540 26 32 0.0 12.9 0.00 0.00 0.00 47 1011.2
20260509015039 26 7 0.0 6.4 0.00 0.00 0.00 47 1011.3
20260509014548 26 27 0.0 9.7 0.00 0.00 0.00 46 1011.3
20260509014040 26 62 1.6 9.7 0.00 0.00 0.00 46 1011.3
20260509013542 26 15 0.0 9.7 0.00 0.00 0.00 45 1011.3
20260509013058 26 16 0.0 9.7 0.00 0.00 0.00 45 1011.3
20260509012542 27 338 0.0 9.7 0.00 0.00 0.00 44 1011.2
20260509012039 27 0 1.6 9.7 0.00 0.00 0.00 43 1011.3
20260509011555 27 321 0.0 8.0 0.00 0.00 0.00 43 1011.3
20260509011043 27 347 0.0 6.4 0.00 0.00 0.00 43 1011.4
20260509010540 27 0 0.0 8.0 0.00 0.00 0.00 42 1011.4
20260509010052 27 338 0.0 8.0 0.00 0.00 0.00 41 1011.4
20260509005542 27 0 0.0 6.4 0.00 0.00 0.00 40 1011.3
20260509005041 27 101 0.0 8.0 0.00 0.00 0.00 39 1011.4
20260509004557 27 0 1.6 12.9 0.00 0.00 0.00 40 1011.4
20260509004039 27 0 1.6 12.9 0.00 0.00 0.00 40 1011.3
20260509003542 27 347 1.6 12.9 0.00 0.00 0.00 39 1011.4
20260509003055 27 344 1.6 11.3 0.00 0.00 0.00 38 1011.6
20260509002539 27 350 1.6 11.3 0.00 0.00 0.00 39 1011.5
20260509002042 27 347 3.2 14.5 0.00 0.00 0.00 37 1011.6
20260509001551 28 356 1.6 14.5 0.00 0.00 0.00 38 1011.8
20260509001039 28 229 0.0 14.5 0.00 0.00 0.00 38 1011.7
20260509000542 28 0 1.6 14.5 0.00 0.00 0.00 38 1011.7
20260509000054 27 338 3.2 12.9 0.00 0.00 0.00 37 1011.7
20260508235542 28 352 4.8 11.3 0.00 0.00 0.00 38 1011.7
20260508235041 28 20 1.6 12.9 0.00 0.00 0.00 36 1011.8
20260508234557 28 149 1.6 12.9 0.00 0.00 0.00 40 1011.7
20260508234042 28 77 0.0 14.5 0.00 0.00 0.00 39 1011.9
20260508233544 28 0 3.2 14.5 0.00 0.00 0.00 40 1011.8
20260508233058 28 15 4.8 12.9 0.00 0.00 0.00 38 1011.8
20260508232546 28 8 1.6 16.1 0.00 0.00 0.00 39 1012.0
20260508232043 28 158 3.2 16.1 0.00 0.00 0.00 39 1011.9
20260508231552 28 352 4.8 14.5 0.00 0.00 0.00 39 1012.0
20260508231043 28 195 3.2 12.9 0.00 0.00 0.00 42 1011.9
20260508230550 28 354 1.6 16.1 0.00 0.00 0.00 43 1011.9
20260508230051 28 0 3.2 16.1 0.00 0.00 0.00 43 1012.1
20260508225541 28 25 4.8 12.9 0.00 0.00 0.00 43 1012.1
20260508225046 28 342 4.8 14.5 0.00 0.00 0.00 42 1012.1
20260508224615 28 345 3.2 14.5 0.00 0.00 0.00 41 1012.2
20260508224039 29 0 1.6 9.7 0.00 0.00 0.00 41 1012.2
20260508223539 29 0 1.6 9.7 0.00 0.00 0.00 38 1012.4
20260508223053 29 235 0.0 11.3 0.00 0.00 0.00 39 1012.4
20260508222538 29 349 1.6 11.3 0.00 0.00 0.00 39 1012.5
20260508222038 29 0 1.6 9.7 0.00 0.00 0.00 37 1012.5
20260508221548 29 0 1.6 9.7 0.00 0.00 0.00 38 1012.7
20260508221039 29 0 0.0 9.7 0.00 0.00 0.00 38 1012.7
20260508220539 28 0 0.0 9.7 0.00 0.00 0.00 41 1012.8
20260508220057 28 338 1.6 11.3 0.00 0.00 0.00 39 1012.8
20260508215538 29 222 1.6 11.3 0.00 0.00 0.00 39 1012.9
20260508215038 28 0 0.0 6.4 0.00 0.00 0.00 40 1013.0
20260508214553 28 0 0.0 14.5 0.00 0.00 0.00 40 1013.0
20260508214038 28 0 0.0 14.5 0.00 0.00 0.00 40 1013.0
20260508213539 29 0 3.2 14.5 0.00 0.00 0.00 38 1013.1
20260508213048 29 0 0.0 6.4 0.00 0.00 0.00 39 1013.1
20260508212539 29 0 0.0 6.4 0.00 0.00 0.00 39 1013.1
20260508212038 29 0 0.0 8.0 0.00 0.00 0.00 40 1013.2
20260508211553 29 0 1.6 9.7 0.00 0.00 0.00 39 1013.2
20260508211039 28 0 0.0 9.7 0.00 0.00 0.00 39 1013.3
20260508210539 29 352 0.0 6.4 0.00 0.00 0.00 39 1013.4
20260508210055 29 0 0.0 8.0 0.00 0.00 0.00 40 1013.5
20260508205543 28 219 0.0 8.0 0.00 0.00 0.00 40 1013.4
20260508205039 29 0 0.0 8.0 0.00 0.00 0.00 40 1013.5
20260508204552 28 0 0.0 4.8 0.00 0.00 0.00 41 1013.5
20260508204039 29 0 0.0 9.7 0.00 0.00 0.00 41 1013.4
20260508203538 28 0 0.0 9.7 0.00 0.00 0.00 41 1013.4
20260508203101 28 232 1.6 8.0 0.00 0.00 0.00 40 1013.5
20260508202539 28 0 0.0 12.9 0.00 0.00 0.00 41 1013.5
20260508202039 28 0 1.6 12.9 0.00 0.00 0.00 40 1013.5
20260508201557 28 0 0.0 6.4 0.00 0.00 0.00 41 1013.5
20260508201040 28 0 0.0 9.7 0.00 0.00 0.00 42 1013.5
20260508200539 28 229 0.0 9.7 0.00 0.00 0.00 42 1013.7
20260508200049 28 220 1.6 9.7 0.00 0.00 0.00 42 1013.6
20260508195541 28 0 0.0 6.4 0.00 0.00 0.00 44 1013.7
20260508195039 28 0 0.0 9.7 0.00 0.00 0.00 45 1013.8
20260508194548 28 346 0.0 9.7 0.00 0.00 0.00 45 1013.8
20260508194043 28 0 0.0 8.0 0.00 0.00 0.00 46 1013.9
20260508193541 28 207 1.6 8.0 0.00 0.00 0.00 46 1013.9
20260508193052 28 225 1.6 8.0 0.00 0.00 0.00 48 1013.9
20260508192555 27 242 3.2 6.4 0.00 0.00 0.00 48 1013.9
20260508192041 27 207 1.6 6.4 0.00 0.00 0.00 50 1014.0
20260508191552 27 193 1.6 6.4 0.00 0.00 0.00 49 1014.0
20260508191044 27 224 0.0 6.4 0.00 0.00 0.00 49 1014.0
20260508190540 27 211 1.6 4.8 0.00 0.00 0.00 51 1014.1
20260508190048 27 0 1.6 4.8 0.00 0.00 0.00 51 1014.1
20260508185543 26 132 0.0 6.4 0.00 0.00 0.00 53 1014.1
20260508185040 26 245 0.0 8.0 0.00 0.00 0.00 54 1014.3
20260508184553 26 214 1.6 8.0 0.00 0.00 0.00 56 1014.3
20260508184040 25 0 0.0 9.7 0.00 0.00 0.00 56 1014.2
20260508183540 25 258 1.6 9.7 0.00 0.00 0.00 56 1014.4
20260508183048 25 162 3.2 9.7 0.00 0.00 0.00 55 1014.4
20260508182542 25 269 1.6 6.4 0.00 0.00 0.00 55 1014.5
20260508182040 25 167 0.0 6.4 0.00 0.00 0.00 55 1014.6
20260508181556 25 198 1.6 6.4 0.00 0.00 0.00 55 1014.5
20260508181041 25 188 1.6 6.4 0.00 0.00 0.00 55 1014.5
20260508180540 25 0 0.0 6.4 0.00 0.00 0.00 55 1014.5
20260508180052 25 158 0.0 6.4 0.00 0.00 0.00 56 1014.6
20260508175540 25 0 0.0 4.8 0.00 0.00 0.00 55 1014.6
20260508175040 25 193 0.0 4.8 0.00 0.00 0.00 56 1014.6
20260508174556 25 0 1.6 4.8 0.00 0.00 0.00 55 1014.7
20260508174041 25 143 0.0 3.2 0.00 0.00 0.00 56 1014.6
20260508173541 25 0 0.0 3.2 0.00 0.00 0.00 57 1014.6
20260508173053 25 0 0.0 4.8 0.00 0.00 0.00 57 1014.6
20260508172540 25 0 0.0 4.8 0.00 0.00 0.00 58 1014.7
20260508172041 24 195 0.0 4.8 0.00 0.00 0.00 59 1014.6
20260508171551 24 176 0.0 4.8 0.00 0.00 0.00 58 1014.7
20260508171042 24 166 0.0 3.2 0.00 0.00 0.00 60 1014.7
20260508170540 23 0 0.0 0.0 0.00 0.00 0.00 60 1014.7
20260508170049 23 0 0.0 0.0 0.00 0.00 0.00 60 1014.6
20260508165540 23 0 0.0 0.0 0.00 0.00 0.00 61 1014.6
20260508165040 23 0 0.0 0.0 0.00 0.00 0.00 63 1014.6
20260508164553 22 0 0.0 0.0 0.00 0.00 0.00 63 1014.7
20260508164041 22 0 0.0 0.0 0.00 0.00 0.00 63 1014.6
20260508163544 22 0 0.0 0.0 0.00 0.00 0.00 63 1014.7
20260508163050 22 0 0.0 0.0 0.00 0.00 0.00 63 1014.8
20260508162541 22 0 0.0 0.0 0.00 0.00 0.00 63 1014.9
20260508162110 22 0 0.0 0.0 0.00 0.00 0.00 64 1014.8
20260508161556 22 0 0.0 0.0 0.00 0.00 0.00 64 1014.8
20260508161041 22 0 0.0 0.0 0.00 0.00 0.00 64 1014.7
20260508160541 22 0 0.0 0.0 0.00 0.00 0.00 65 1014.7
20260508160049 21 0 0.0 0.0 0.00 0.00 0.00 68 1014.7
20260508155540 20 0 0.0 0.0 0.00 0.00 0.00 69 1014.7
20260508155042 20 0 0.0 0.0 0.00 0.00 0.00 72 1014.6
20260508154608 18 0 0.0 0.0 0.00 0.00 0.00 73 1014.7
20260508154040 18 0 0.0 0.0 0.00 0.00 0.00 75 1014.7
20260508153540 17 0 0.0 0.0 0.00 0.00 0.00 76 1014.9
20260508153051 17 0 0.0 1.6 0.00 0.00 0.00 77 1014.9
20260508152544 17 0 0.0 1.6 0.00 0.00 0.00 77 1014.7
20260508152041 17 0 0.0 1.6 0.00 0.00 0.00 78 1014.7
20260508151554 16 0 0.0 1.6 0.00 0.00 0.00 78 1014.7
20260508151041 16 0 0.0 1.6 0.00 0.00 0.00 79 1014.8
20260508150540 16 0 0.0 1.6 0.00 0.00 0.00 80 1014.8
20260508150059 16 0 0.0 3.2 0.00 0.00 0.00 81 1014.9
20260508145542 15 12 0.0 3.2 0.00 0.00 0.00 80 1014.8
20260508145040 15 0 0.0 3.2 0.00 0.00 0.00 80 1014.7
20260508144548 15 0 0.0 3.2 0.00 0.00 0.00 81 1014.7
20260508144043 15 340 0.0 1.6 0.00 0.00 0.00 82 1014.7
20260508143542 14 0 0.0 1.6 0.00 0.00 0.00 83 1014.7
20260508143106 13 0 0.0 3.2 0.00 0.00 0.00 84 1014.7
20260508142540 13 0 0.0 3.2 0.00 0.00 0.00 86 1014.6
20260508142041 13 0 0.0 1.6 0.00 0.00 0.00 87 1014.6
20260508141549 13 0 0.0 0.0 0.00 0.00 0.00 88 1014.6
20260508141040 12 0 0.0 0.0 0.00 0.00 0.00 91 1014.6
20260508140541 11 0 0.0 0.0 0.00 0.00 0.00 92 1014.7
20260508135541 11 0 0.0 0.0 0.00 0.00 0.00 93 1014.5
20260508135041 11 0 0.0 0.0 0.00 0.00 0.00 93 1014.6
20260508134555 11 0 0.0 0.0 0.00 0.00 0.00 93 1014.4
20260508134041 11 0 0.0 0.0 0.00 0.00 0.00 93 1014.4
20260508133541 11 0 0.0 0.0 0.00 0.00 0.00 93 1014.2
20260508133105 11 0 0.0 0.0 0.00 0.00 0.00 92 1014.3
20260508132540 11 0 0.0 0.0 0.00 0.00 0.00 92 1014.3
20260508132041 11 0 0.0 0.0 0.00 0.00 0.00 92 1014.3
20260508131600 11 0 0.0 0.0 0.00 0.00 0.00 92 1014.3
20260508131040 11 0 0.0 0.0 0.00 0.00 0.00 93 1014.4
20260508130539 11 0 0.0 0.0 0.00 0.00 0.00 93 1014.3
20260508130054 11 0 0.0 0.0 0.00 0.00 0.00 93 1014.2
20260508125538 11 0 0.0 0.0 0.00 0.00 0.00 93 1014.2
20260508125040 11 0 0.0 0.0 0.00 0.00 0.00 93 1014.2
20260508124554 11 0 0.0 0.0 0.00 0.00 0.00 93 1014.2
20260508124039 11 0 0.0 0.0 0.00 0.00 0.00 93 1014.2
20260508123540 11 0 0.0 0.0 0.00 0.00 0.00 93 1014.2
20260508123053 11 0 0.0 0.0 0.00 0.00 0.00 93 1014.2
20260508122539 11 0 0.0 0.0 0.00 0.00 0.00 93 1014.2
20260508122037 11 0 0.0 0.0 0.00 0.00 0.00 93 1014.1
20260508121549 11 0 0.0 0.0 0.00 0.00 0.00 92 1014.2
20260508121042 11 0 0.0 0.0 0.00 0.00 0.00 92 1014.1
20260508120539 11 0 0.0 0.0 0.00 0.00 0.00 92 1014.2
20260508120058 11 0 0.0 0.0 0.00 0.00 0.00 92 1014.2
20260508115538 11 0 0.0 1.6 0.00 0.00 0.00 92 1014.1
20260508115039 12 0 0.0 1.6 0.00 0.00 0.00 92 1014.1
20260508114548 12 344 0.0 0.0 0.00 0.00 0.00 92 1014.0
20260508114040 12 0 0.0 1.6 0.00 0.00 0.00 92 1014.0
20260508113542 12 0 0.0 1.6 0.00 0.00 0.00 92 1013.9
20260508113049 12 0 0.0 1.6 0.00 0.00 0.00 91 1013.9
20260508112539 12 0 0.0 0.0 0.00 0.00 0.00 90 1013.9
20260508112040 12 0 0.0 0.0 0.00 0.00 0.00 90 1013.8
20260508111601 12 0 0.0 0.0 0.00 0.00 0.00 90 1013.8
20260508111040 12 0 0.0 0.0 0.00 0.00 0.00 90 1013.8
20260508110541 12 0 0.0 1.6 0.00 0.00 0.00 91 1013.8
20260508110048 12 0 0.0 1.6 0.00 0.00 0.00 91 1013.8
20260508105537 12 0 0.0 1.6 0.00 0.00 0.00 90 1013.9
20260508105040 12 0 0.0 1.6 0.00 0.00 0.00 90 1014.0
20260508104549 12 0 0.0 0.0 0.00 0.00 0.00 90 1013.9
20260508104040 12 0 0.0 0.0 0.00 0.00 0.00 89 1013.8
20260508103540 12 0 0.0 0.0 0.00 0.00 0.00 89 1013.9
20260508103053 12 0 0.0 0.0 0.00 0.00 0.00 90 1013.9
20260508102539 13 0 0.0 0.0 0.00 0.00 0.00 89 1014.0
20260508102040 13 0 0.0 0.0 0.00 0.00 0.00 89 1014.0
20260508101550 13 0 0.0 0.0 0.00 0.00 0.00 89 1013.9
20260508101040 13 0 0.0 0.0 0.00 0.00 0.00 89 1014.0
20260508100539 13 0 0.0 0.0 0.00 0.00 0.00 88 1014.0
20260508100046 13 0 0.0 0.0 0.00 0.00 0.00 88 1014.0
20260508095540 13 0 0.0 0.0 0.00 0.00 0.00 88 1014.0
20260508095040 13 0 0.0 0.0 0.00 0.00 0.00 88 1013.9
20260508094552 13 0 0.0 0.0 0.00 0.00 0.00 87 1014.0
20260508094039 13 0 0.0 0.0 0.00 0.00 0.00 87 1014.0
20260508093544 13 0 0.0 0.0 0.00 0.00 0.00 87 1013.9
20260508093051 14 0 0.0 0.0 0.00 0.00 0.00 86 1013.9
20260508092539 14 0 0.0 0.0 0.00 0.00 0.00 85 1013.9
20260508092042 14 0 0.0 0.0 0.00 0.00 0.00 84 1013.8
20260508091601 14 0 0.0 0.0 0.00 0.00 0.00 84 1013.8
20260508091039 15 0 0.0 1.6 0.00 0.00 0.00 84 1013.9
20260508090540 15 0 0.0 1.6 0.00 0.00 0.00 84 1013.8
20260508090045 15 0 0.0 1.6 0.00 0.00 0.00 84 1013.9
20260508085540 15 0 0.0 1.6 0.00 0.00 0.00 85 1013.9
20260508085042 15 0 0.0 0.0 0.00 0.00 0.00 85 1013.8
20260508084557 15 0 0.0 0.0 0.00 0.00 0.00 84 1013.8
20260508084041 15 0 0.0 0.0 0.00 0.00 0.00 84 1013.8
20260508083540 15 0 0.0 0.0 0.00 0.00 0.00 84 1013.8
20260508083056 15 0 0.0 0.0 0.00 0.00 0.00 84 1013.9
20260508082536 15 0 0.0 0.0 0.00 0.00 0.00 84 1013.9
20260508082039 15 0 0.0 0.0 0.00 0.00 0.00 83 1013.8
20260508081549 15 0 0.0 0.0 0.00 0.00 0.00 84 1013.9
20260508081039 15 0 0.0 0.0 0.00 0.00 0.00 85 1013.8
20260508080546 15 0 0.0 0.0 0.00 0.00 0.00 84 1013.9
20260508080109 15 0 0.0 0.0 0.00 0.00 0.00 85 1013.8
20260508075542 16 0 0.0 0.0 0.00 0.00 0.00 84 1013.8
20260508075039 16 0 0.0 0.0 0.00 0.00 0.00 84 1013.8
20260508074549 16 0 0.0 0.0 0.00 0.00 0.00 84 1013.8
20260508074039 16 0 0.0 0.0 0.00 0.00 0.00 85 1013.8
20260508073540 16 0 0.0 1.6 0.00 0.00 0.00 84 1013.9
20260508073055 16 0 0.0 1.6 0.00 0.00 0.00 84 1013.9
20260508072539 16 0 0.0 0.0 0.00 0.00 0.00 84 1013.9
20260508072039 16 0 0.0 0.0 0.00 0.00 0.00 85 1013.8
20260508071548 16 0 0.0 0.0 0.00 0.00 0.00 85 1013.8
20260508071040 16 0 0.0 0.0 0.00 0.00 0.00 86 1013.8
20260508070536 17 0 0.0 0.0 0.00 0.00 0.00 85 1013.7
20260508070054 17 0 0.0 0.0 0.00 0.00 0.00 85 1013.7
20260508065542 17 0 0.0 0.0 0.00 0.00 0.00 86 1013.8
20260508065040 17 0 0.0 0.0 0.00 0.00 0.00 86 1013.8
20260508064556 17 0 0.0 0.0 0.00 0.00 0.00 86 1013.7
20260508064041 17 0 0.0 1.6 0.00 0.00 0.00 86 1013.8
20260508063541 17 0 0.0 1.6 0.00 0.00 0.00 86 1013.7
20260508063052 17 0 0.0 1.6 0.00 0.00 0.00 85 1013.6
20260508062540 17 0 0.0 1.6 0.00 0.00 0.00 85 1013.7
20260508062040 18 0 0.0 1.6 0.00 0.00 0.00 85 1013.6
20260508061553 18 0 0.0 1.6 0.00 0.00 0.00 84 1013.6
20260508061043 18 0 0.0 1.6 0.00 0.00 0.00 84 1013.6
20260508060541 18 0 0.0 1.6 0.00 0.00 0.00 84 1013.6
20260508060058 18 0 0.0 1.6 0.00 0.00 0.00 84 1013.7
20260508055543 18 0 0.0 1.6 0.00 0.00 0.00 84 1013.7
20260508055040 18 0 0.0 1.6 0.00 0.00 0.00 84 1013.7
20260508054550 18 0 0.0 1.6 0.00 0.00 0.00 84 1013.7
20260508054042 18 0 0.0 1.6 0.00 0.00 0.00 84 1013.7
20260508053543 18 0 0.0 0.0 0.00 0.00 0.00 84 1013.8
20260508053100 18 0 0.0 0.0 0.00 0.00 0.00 83 1013.7
20260508052540 18 0 0.0 0.0 0.00 0.00 0.00 83 1013.8
20260508052040 19 0 0.0 0.0 0.00 0.00 0.00 82 1013.7
20260508051603 19 0 0.0 0.0 0.00 0.00 0.00 82 1013.7
20260508051040 19 0 0.0 0.0 0.00 0.00 0.00 81 1013.7
20260508050540 20 0 0.0 0.0 0.00 0.00 0.00 81 1013.7
20260508050103 20 0 0.0 0.0 0.00 0.00 0.00 80 1013.7
20260508045540 20 0 0.0 0.0 0.00 0.00 0.00 79 1013.6
20260508045040 20 0 0.0 0.0 0.00 0.00 0.00 78 1013.7
20260508044555 20 0 0.0 0.0 0.00 0.00 0.00 78 1013.7
20260508044039 20 0 0.0 0.0 0.00 0.00 0.00 77 1013.6
20260508043541 21 0 0.0 0.0 0.00 0.00 0.00 76 1013.6
20260508043052 21 0 0.0 0.0 0.00 0.00 0.00 75 1013.6
20260508042541 21 0 0.0 0.0 0.00 0.00 0.00 75 1013.6
20260508042040 21 0 0.0 1.6 0.00 0.00 0.00 74 1013.4
20260508041558 22 0 0.0 6.4 0.00 0.00 0.00 73 1013.4
20260508041040 22 0 0.0 6.4 0.00 0.00 0.00 73 1013.3
20260508040542 22 0 0.0 1.6 0.00 0.00 0.00 73 1013.3
20260508040100 22 0 0.0 0.0 0.00 0.00 0.00 73 1013.4
20260508035612 22 0 0.0 0.0 0.00 0.00 0.00 72 1013.3